EZY49EV EGGW-LICJ

Flight info

Callsign EZY49EV
Flight time N/A
Altitude 37000
Route RODNI N27 ICTAM Q63 CPT DCT MID UL612 OGULO DCT OKASI DCT OKEKO DCT MOU DCT MADIV DCT MOKIP DCT TUFTA DCT KOGAS DCT MEDAM DCT NITAM DCT MOGBO DCT BAKRO DCT VALMA DCT BETOT DCT RONAB DCT GIANO
Aircraft A320/M-SDE3FGHIRWY/LB1

Departure

Time 2026-05-07 12:44
Airport London Luton Airport (EGGW)

Arrival

Time N/A
Airport Falcone–Borsellino Airport (LICJ)
Time Latitude Longitude Altitude Speed Heading
2026-05-07 12:11 51.88175 -0.37313 517 ft 0 kts 161°
2026-05-07 12:35 51.88194 -0.37323 517 ft 4 kts 161°
2026-05-07 12:35 51.88215 -0.37333 516 ft 4 kts 149°
2026-05-07 12:35 51.88223 -0.37360 516 ft 4 kts 76°
2026-05-07 12:35 51.88216 -0.37394 516 ft 1 kts 71°
2026-05-07 12:36 51.88216 -0.37395 516 ft 0 kts 71°
2026-05-07 12:38 51.88217 -0.37393 516 ft 1 kts 71°
2026-05-07 12:38 51.88227 -0.37344 516 ft 9 kts 71°
2026-05-07 12:38 51.88206 -0.37235 517 ft 13 kts 143°
2026-05-07 12:38 51.88106 -0.37179 510 ft 18 kts 163°
2026-05-07 12:39 51.87978 -0.37110 508 ft 20 kts 161°
2026-05-07 12:39 51.87845 -0.37037 512 ft 19 kts 161°
2026-05-07 12:39 51.87728 -0.36977 520 ft 15 kts 162°
2026-05-07 12:39 51.87641 -0.36956 525 ft 10 kts 201°
2026-05-07 12:40 51.87611 -0.37070 522 ft 11 kts 257°
2026-05-07 12:40 51.87595 -0.37182 522 ft 10 kts 257°
2026-05-07 12:40 51.87582 -0.37279 522 ft 8 kts 258°
2026-05-07 12:40 51.87582 -0.37381 522 ft 11 kts 273°
2026-05-07 12:41 51.87531 -0.37484 521 ft 15 kts 219°
2026-05-07 12:41 51.87484 -0.37652 523 ft 19 kts 255°
2026-05-07 12:41 51.87449 -0.37857 522 ft 18 kts 254°
2026-05-07 12:41 51.87428 -0.37967 524 ft 5 kts 246°
2026-05-07 12:42 51.87413 -0.38005 524 ft 3 kts 235°
2026-05-07 12:42 51.87408 -0.38016 524 ft 0 kts 230°
2026-05-07 12:43 51.87405 -0.38022 524 ft 1 kts 230°
2026-05-07 12:43 51.87400 -0.38031 524 ft 3 kts 228°
2026-05-07 12:43 51.87332 -0.38090 522 ft 15 kts 200°
2026-05-07 12:43 51.87258 -0.38065 523 ft 11 kts 110°
2026-05-07 12:44 51.87292 -0.37835 525 ft 47 kts 75°
2026-05-07 12:44 51.87449 -0.36933 523 ft 118 kts 75°
2026-05-07 12:44 51.87714 -0.35361 640 ft 161 kts 75°
2026-05-07 12:44 51.87995 -0.33646 1457 ft 159 kts 77°
2026-05-07 12:45 51.88294 -0.31840 2028 ft 175 kts 76°
2026-05-07 12:45 51.88638 -0.29835 2338 ft 195 kts 76°
2026-05-07 12:45 51.89027 -0.27612 2658 ft 215 kts 76°
2026-05-07 12:45 51.89075 -0.25121 3036 ft 233 kts 111°
2026-05-07 12:46 51.88086 -0.22972 3466 ft 251 kts 149°
2026-05-07 12:46 51.86407 -0.22296 4264 ft 257 kts 185°
2026-05-07 12:46 51.84767 -0.23405 5143 ft 261 kts 221°
2026-05-07 12:46 51.83800 -0.25890 5914 ft 270 kts 255°
2026-05-07 12:47 51.83618 -0.28942 6744 ft 273 kts 264°
2026-05-07 12:47 51.83382 -0.31988 7596 ft 275 kts 258°
2026-05-07 12:47 51.82958 -0.35027 8381 ft 279 kts 253°
2026-05-07 12:47 51.82417 -0.38065 9175 ft 283 kts 251°
2026-05-07 12:48 51.81781 -0.41093 9991 ft 286 kts 248°
2026-05-07 12:48 51.81067 -0.44133 10532 ft 299 kts 250°
2026-05-07 12:48 51.80467 -0.47482 10743 ft 322 kts 255°
2026-05-07 12:48 51.79975 -0.51109 11185 ft 335 kts 257°
2026-05-07 12:49 51.79517 -0.54826 11864 ft 340 kts 258°
2026-05-07 12:49 51.79042 -0.58580 12576 ft 343 kts 257°
2026-05-07 12:49 51.78529 -0.62359 13286 ft 346 kts 256°
2026-05-07 12:49 51.77975 -0.66161 13969 ft 349 kts 255°
2026-05-07 12:50 51.77389 -0.69989 14584 ft 352 kts 255°
2026-05-07 12:50 51.76789 -0.73837 15215 ft 354 kts 254°
2026-05-07 12:50 51.75938 -0.77569 15835 ft 356 kts 243°
2026-05-07 12:50 51.74629 -0.80961 16482 ft 357 kts 231°
2026-05-07 12:51 51.72944 -0.83924 17088 ft 359 kts 224°
2026-05-07 12:51 51.71174 -0.86776 17707 ft 361 kts 225°
2026-05-07 12:51 51.69391 -0.89648 18318 ft 364 kts 225°
2026-05-07 12:51 51.67595 -0.92536 18839 ft 366 kts 225°
2026-05-07 12:52 51.65786 -0.95439 19352 ft 369 kts 225°
2026-05-07 12:52 51.63963 -0.98363 19881 ft 371 kts 225°
2026-05-07 12:52 51.62129 -1.01303 20402 ft 373 kts 225°
2026-05-07 12:52 51.60286 -1.04250 20899 ft 375 kts 225°
2026-05-07 12:53 51.58424 -1.07213 21389 ft 378 kts 225°
2026-05-07 12:53 51.56468 -1.10063 21874 ft 381 kts 218°
2026-05-07 12:53 51.54230 -1.12360 22353 ft 384 kts 208°
2026-05-07 12:53 51.51752 -1.13985 22814 ft 387 kts 197°
2026-05-07 12:54 51.49083 -1.14759 23261 ft 392 kts 185°
2026-05-07 12:54 51.46345 -1.14551 23687 ft 398 kts 172°
2026-05-07 12:54 51.43670 -1.13312 24054 ft 403 kts 158°
2026-05-07 12:54 51.41232 -1.11057 24424 ft 409 kts 144°
2026-05-07 12:55 51.39781 -1.09113 24657 ft 411 kts 141°
2026-05-07 12:55 51.37613 -1.06114 25029 ft 413 kts 141°
2026-05-07 12:55 51.35426 -1.03117 25391 ft 415 kts 141°
2026-05-07 12:55 51.33217 -1.00112 25748 ft 417 kts 141°
2026-05-07 12:56 51.30998 -0.97101 26055 ft 420 kts 142°
2026-05-07 12:56 51.28761 -0.94071 26373 ft 423 kts 142°
2026-05-07 12:56 51.26512 -0.91022 26724 ft 425 kts 142°
2026-05-07 12:56 51.24253 -0.87960 27065 ft 427 kts 142°
2026-05-07 12:57 51.21983 -0.84882 27400 ft 429 kts 141°
2026-05-07 12:57 51.19703 -0.81788 27731 ft 431 kts 141°
2026-05-07 12:57 51.17414 -0.78685 28061 ft 433 kts 142°
2026-05-07 12:57 51.15106 -0.75564 28390 ft 435 kts 142°
2026-05-07 12:58 51.12786 -0.72439 28712 ft 437 kts 142°
2026-05-07 12:58 51.10459 -0.69313 29026 ft 440 kts 142°
2026-05-07 12:58 51.08115 -0.66164 29315 ft 442 kts 142°
2026-05-07 12:58 51.05763 -0.63021 29620 ft 443 kts 144°
2026-05-07 12:59 51.03246 -0.60194 29912 ft 444 kts 148°
2026-05-07 12:59 51.00675 -0.57450 30210 ft 445 kts 148°
2026-05-07 12:59 50.98095 -0.54702 30456 ft 447 kts 148°
2026-05-07 12:59 50.95508 -0.51949 30699 ft 449 kts 148°
2026-05-07 13:00 50.92912 -0.49189 30944 ft 450 kts 148°
2026-05-07 13:00 50.90306 -0.46421 31214 ft 450 kts 148°
2026-05-07 13:00 50.87705 -0.43660 31552 ft 449 kts 148°
2026-05-07 13:00 50.85109 -0.40909 31818 ft 450 kts 148°
2026-05-07 13:01 50.82505 -0.38152 32132 ft 450 kts 148°
2026-05-07 13:01 50.79911 -0.35400 32447 ft 449 kts 148°
2026-05-07 13:01 50.77327 -0.32658 32765 ft 449 kts 148°
2026-05-07 13:01 50.74732 -0.29914 33086 ft 448 kts 148°
2026-05-07 13:02 50.72143 -0.27187 33403 ft 447 kts 149°
2026-05-07 13:02 50.69555 -0.24469 33735 ft 446 kts 149°
2026-05-07 13:02 50.67012 -0.21809 34055 ft 445 kts 149°
2026-05-07 13:02 50.64436 -0.19118 34311 ft 445 kts 149°
2026-05-07 13:03 50.61890 -0.16458 34545 ft 445 kts 149°
2026-05-07 13:03 50.59312 -0.13763 34780 ft 445 kts 149°
2026-05-07 13:03 50.56729 -0.11065 35024 ft 445 kts 149°
2026-05-07 13:03 50.54151 -0.08376 35250 ft 445 kts 149°
2026-05-07 13:04 50.51588 -0.05704 35473 ft 444 kts 149°
2026-05-07 13:04 50.49030 -0.03043 35693 ft 444 kts 149°
2026-05-07 13:04 50.46493 -0.00407 35903 ft 444 kts 149°
2026-05-07 13:04 50.43922 0.02264 36094 ft 444 kts 149°
2026-05-07 13:05 50.41416 0.04862 36272 ft 444 kts 149°
2026-05-07 13:05 50.38864 0.07502 36457 ft 444 kts 149°
2026-05-07 13:05 50.36328 0.10127 36653 ft 444 kts 149°
2026-05-07 13:05 50.33762 0.12779 36854 ft 444 kts 149°
2026-05-07 13:06 50.31208 0.15414 37030 ft 444 kts 149°
2026-05-07 13:06 50.28642 0.18063 37087 ft 444 kts 149°
2026-05-07 13:06 50.23560 0.23281 37088 ft 443 kts 149°
2026-05-07 13:07 50.18551 0.28407 37075 ft 443 kts 149°
2026-05-07 13:07 50.13407 0.33701 37084 ft 443 kts 149°
2026-05-07 13:08 50.08298 0.38945 37084 ft 443 kts 149°
2026-05-07 13:08 50.03146 0.44216 37086 ft 443 kts 149°
2026-05-07 13:09 49.97961 0.49510 37078 ft 443 kts 149°
2026-05-07 13:09 49.92837 0.54719 37065 ft 443 kts 149°
2026-05-07 13:10 49.87676 0.59956 37064 ft 443 kts 149°
2026-05-07 13:10 49.82732 0.65700 37071 ft 445 kts 143°
2026-05-07 13:11 49.77929 0.71763 37066 ft 445 kts 143°
2026-05-07 13:11 49.73109 0.77817 37059 ft 445 kts 143°
2026-05-07 13:12 49.68290 0.83839 37057 ft 445 kts 143°
2026-05-07 13:12 49.63511 0.89805 37066 ft 445 kts 143°
2026-05-07 13:13 49.58692 0.95810 37066 ft 445 kts 143°
2026-05-07 13:13 49.53872 1.01815 37056 ft 446 kts 143°
2026-05-07 13:14 49.49042 1.07806 37050 ft 446 kts 143°
2026-05-07 13:14 49.44207 1.13769 37056 ft 446 kts 143°
2026-05-07 13:15 49.39365 1.19730 37056 ft 446 kts 143°
2026-05-07 13:15 49.34524 1.25690 37063 ft 446 kts 143°
2026-05-07 13:16 49.29676 1.31650 37064 ft 446 kts 143°
2026-05-07 13:16 49.24828 1.37591 37053 ft 447 kts 143°
2026-05-07 13:17 49.19995 1.43488 37060 ft 447 kts 143°
2026-05-07 13:17 49.15130 1.49410 37061 ft 447 kts 144°
2026-05-07 13:18 49.10297 1.55283 37065 ft 447 kts 144°
2026-05-07 13:18 49.05427 1.61183 37050 ft 447 kts 144°
2026-05-07 13:19 49.00551 1.67065 37054 ft 447 kts 144°
2026-05-07 13:19 48.95673 1.72944 37057 ft 447 kts 144°
2026-05-07 13:20 48.90797 1.78820 37049 ft 447 kts 144°
2026-05-07 13:20 48.85908 1.84678 37049 ft 448 kts 144°
2026-05-07 13:21 48.81006 1.90527 37059 ft 448 kts 144°
2026-05-07 13:21 48.76108 1.96375 37064 ft 448 kts 144°
2026-05-07 13:22 48.71200 2.02212 37064 ft 448 kts 144°
2026-05-07 13:22 48.66289 2.08040 37064 ft 448 kts 144°
2026-05-07 13:23 48.61384 2.13859 37060 ft 448 kts 144°
2026-05-07 13:23 48.56512 2.19760 37051 ft 450 kts 139°
2026-05-07 13:24 48.52079 2.26459 37051 ft 451 kts 137°
2026-05-07 13:24 48.47656 2.33164 37048 ft 451 kts 137°
2026-05-07 13:25 48.43256 2.39831 37051 ft 451 kts 137°
2026-05-07 13:25 48.38821 2.46531 37042 ft 451 kts 137°
2026-05-07 13:26 48.34383 2.53208 37045 ft 451 kts 137°
2026-05-07 13:26 48.29922 2.59843 37042 ft 450 kts 141°
2026-05-07 13:27 48.24744 2.64937 37036 ft 443 kts 159°
2026-05-07 13:27 48.19145 2.68859 37026 ft 445 kts 156°
2026-05-07 13:28 48.13685 2.73260 37034 ft 446 kts 154°
2026-05-07 13:28 48.08251 2.77764 37038 ft 445 kts 157°
2026-05-07 13:29 48.02625 2.81467 37038 ft 444 kts 160°
2026-05-07 13:29 47.96929 2.85070 37036 ft 444 kts 160°
2026-05-07 13:30 47.91229 2.88662 37046 ft 445 kts 160°
2026-05-07 13:30 47.85530 2.92258 37051 ft 445 kts 160°
2026-05-07 13:31 47.79832 2.95862 37051 ft 445 kts 160°
2026-05-07 13:31 47.74125 2.99460 37027 ft 445 kts 160°
2026-05-07 13:32 47.68419 3.03043 37044 ft 445 kts 160°
2026-05-07 13:32 47.62705 3.06623 37049 ft 446 kts 160°
2026-05-07 13:33 47.56989 3.10188 37055 ft 446 kts 160°
2026-05-07 13:33 47.51272 3.13758 37049 ft 446 kts 160°
2026-05-07 13:34 47.42693 3.19106 37048 ft 446 kts 160°
2026-05-07 13:35 47.36973 3.22659 37050 ft 446 kts 160°
2026-05-07 13:35 47.31247 3.26196 37035 ft 446 kts 160°
2026-05-07 13:36 47.25524 3.29728 37036 ft 446 kts 160°
2026-05-07 13:36 47.19799 3.33255 37038 ft 446 kts 160°
2026-05-07 13:37 47.14072 3.36770 37034 ft 446 kts 160°
2026-05-07 13:37 47.09311 3.39693 37045 ft 446 kts 161°
2026-05-07 13:38 47.03581 3.43202 37053 ft 446 kts 161°
2026-05-07 13:38 46.97852 3.46689 37051 ft 446 kts 161°
2026-05-07 13:39 46.92117 3.50178 37049 ft 446 kts 161°
2026-05-07 13:39 46.86380 3.53662 37034 ft 446 kts 161°
2026-05-07 13:40 46.80656 3.57141 37036 ft 446 kts 161°
2026-05-07 13:40 46.75075 3.61126 37031 ft 451 kts 147°
2026-05-07 13:40 46.72684 3.64116 37030 ft 456 kts 136°
2026-05-07 13:41 46.70730 3.67770 37027 ft 460 kts 124°
2026-05-07 13:41 46.69304 3.71967 37023 ft 464 kts 111°
2026-05-07 13:41 46.68430 3.76497 37018 ft 466 kts 105°
2026-05-07 13:42 46.66887 3.85673 37018 ft 467 kts 106°
2026-05-07 13:42 46.65305 3.94845 37020 ft 467 kts 106°
2026-05-07 13:43 46.63714 4.04019 37023 ft 468 kts 106°
2026-05-07 13:43 46.62121 4.13149 37018 ft 468 kts 106°
2026-05-07 13:44 46.60508 4.22333 37019 ft 469 kts 106°
2026-05-07 13:44 46.58893 4.31519 37020 ft 469 kts 106°
2026-05-07 13:45 46.57277 4.40707 37024 ft 469 kts 106°
2026-05-07 13:45 46.55652 4.49902 37018 ft 469 kts 106°
2026-05-07 13:46 46.54012 4.59078 37028 ft 470 kts 107°
2026-05-07 13:46 46.52357 4.68261 37030 ft 470 kts 107°
2026-05-07 13:47 46.50704 4.77438 37024 ft 470 kts 107°
2026-05-07 13:47 46.49050 4.86612 37023 ft 470 kts 107°
2026-05-07 13:48 46.47380 4.95783 37027 ft 470 kts 107°
2026-05-07 13:48 46.45702 5.04948 37012 ft 470 kts 107°
2026-05-07 13:49 46.44013 5.14120 37014 ft 471 kts 107°
2026-05-07 13:49 46.42323 5.23284 37021 ft 471 kts 107°
2026-05-07 13:50 46.40632 5.32406 37021 ft 472 kts 107°
2026-05-07 13:50 46.38499 5.41336 37021 ft 467 kts 121°
2026-05-07 13:51 46.34787 5.48922 37023 ft 460 kts 134°
2026-05-07 13:51 46.30591 5.56008 37023 ft 461 kts 134°
2026-05-07 13:52 46.26462 5.63025 37009 ft 461 kts 134°
2026-05-07 13:52 46.22267 5.70127 36995 ft 462 kts 134°
2026-05-07 13:53 46.18081 5.77161 36991 ft 462 kts 134°
2026-05-07 13:53 46.13888 5.84208 36997 ft 463 kts 134°
2026-05-07 13:54 46.09717 5.91196 36997 ft 463 kts 134°
2026-05-07 13:54 46.05512 5.98218 36993 ft 463 kts 135°
2026-05-07 13:55 46.01298 6.05237 37000 ft 463 kts 135°
2026-05-07 13:55 45.97082 6.12251 36981 ft 463 kts 135°
2026-05-07 13:56 45.92857 6.19250 36990 ft 464 kts 135°
2026-05-07 13:56 45.88620 6.26245 36994 ft 464 kts 135°
2026-05-07 13:57 45.84388 6.33221 36971 ft 463 kts 135°
2026-05-07 13:57 45.79949 6.39898 36984 ft 459 kts 146°
2026-05-07 13:58 45.74837 6.45192 36972 ft 456 kts 149°
2026-05-07 13:58 45.69636 6.50487 36956 ft 455 kts 150°
2026-05-07 13:59 45.64473 6.55739 36965 ft 456 kts 150°
2026-05-07 13:59 45.59320 6.60954 36979 ft 457 kts 149°